Pascagoula, MS

6:37 PM CDT on September 25, 2017 (GMT -0500)
Lott International

Weather History for KPQL - October, 2013

Change the Weather History Date:

Tuesday, October 22, 2013

  Actual Average Record
Temperature  
Mean Temperature 70 °F -  
Max Temperature 80 °F 78 °F 89 °F (1963)
Min Temperature 60 °F 57 °F 32 °F (1989)
Cooling Degree Days 5    
Growing Degree Days 20 (Base 50)    
Moisture  
Dew Point 59 °F    
Average Humidity 75    
Maximum Humidity 97    
Minimum Humidity 38    
Precipitation  
Precipitation 0.00 in - - ()
Sea Level Pressure  
Sea Level Pressure 29.96 in    
Wind  
Wind Speed 3 mph (NNW)    
Max Wind Speed 7 mph    
Max Gust Speed -    
Visibility 10 miles    
Events      
Averages and records for this station are not official NWS values.
T = Trace of Precipitation, MM = Missing Value Source: NWS Daily Summary

Daily Weather History Graph

Daily Weather History Graph

Search for Another Location

Airport or City:

Trip Planner

Search our weather history database for the weather conditions in past years. The results will help you decide how hot, cold, wet, or windy it might be!

Date:

Astronomy

Oct. 22, 2013 Rise Set
Actual Time 7:01 AM CDT 6:15 PM CDT
Civil Twilight 6:36 AM CDT 6:39 PM CDT
Nautical Twilight 6:08 AM CDT 7:07 PM CDT
Astronomical Twilight 5:40 AM CDT 7:35 PM CDT
Moon 9:06 PM CDT (10/22) 10:18 AM CDT (10/22)
Length of Visible Light 12h 02m
Length of Day
11h 13m
Waning Gibbous, 86% of the Moon is Illuminated
Oct 22
Waning Gibbous
Oct 26
Last Quarter
Nov 3
New
Nov 9
First Quarter
Nov 17
Full

Hourly Weather History & Observations

Time (CDT) Temp. Dew Point Humidity Pressure Visibility Wind Dir Wind Speed Gust Speed Precip Events Conditions
12:53 AM 63.0 °F 61.0 °F 93% 29.99 in 10.0 mi Calm Calm - N/A   Mostly Cloudy
1:53 AM 63.0 °F 61.0 °F 93% 29.99 in 10.0 mi NNW 3.5 mph - N/A   Overcast
2:53 AM 63.0 °F 60.1 °F 90% 29.98 in 10.0 mi Calm Calm - N/A   Overcast
3:53 AM 63.0 °F 60.1 °F 90% 29.96 in 10.0 mi Calm Calm - N/A   Overcast
4:53 AM 64.0 °F 61.0 °F 90% 29.97 in 10.0 mi Calm Calm - N/A   Overcast
5:53 AM 63.0 °F 61.0 °F 93% 29.98 in 10.0 mi North 5.8 mph - N/A   Overcast
6:53 AM 61.0 °F 60.1 °F 97% 29.97 in 9.0 mi NE 3.5 mph - N/A   Partly Cloudy
7:53 AM 62.1 °F 60.1 °F 93% 29.98 in 6.0 mi North 4.6 mph - N/A   Partly Cloudy
8:53 AM 66.0 °F 61.0 °F 84% 29.98 in 10.0 mi NNE 3.5 mph - N/A   Scattered Clouds
9:53 AM 69.1 °F 61.0 °F 75% 29.98 in 10.0 mi NE 3.5 mph - N/A   Mostly Cloudy
10:53 AM 73.0 °F 62.1 °F 68% 29.97 in 10.0 mi Calm Calm - N/A   Clear
11:53 AM 75.0 °F 63.0 °F 66% 29.96 in 10.0 mi Variable 3.5 mph - N/A   Clear
12:53 PM 77.0 °F 61.0 °F 58% 29.94 in 10.0 mi Variable 6.9 mph - N/A   Clear
1:53 PM 78.1 °F 55.9 °F 46% 29.92 in 10.0 mi NW 6.9 mph - N/A   Clear
2:53 PM 79.0 °F 51.1 °F 38% 29.91 in 10.0 mi North 6.9 mph - N/A   Clear
3:53 PM 78.1 °F 55.9 °F 46% 29.90 in 10.0 mi NNW 5.8 mph - N/A   Clear
4:53 PM 78.1 °F 55.9 °F 46% 29.91 in 10.0 mi NNW 3.5 mph - N/A   Clear
5:53 PM 73.9 °F 57.9 °F 57% 29.91 in 10.0 mi NNW 3.5 mph - N/A   Clear
6:53 PM 69.1 °F 57.9 °F 68% 29.92 in 10.0 mi NW 3.5 mph - N/A   Clear
7:53 PM 62.1 °F 59.0 °F 90% 29.94 in 10.0 mi Calm Calm - N/A   Clear
8:53 PM 64.0 °F 57.9 °F 80% 29.96 in 10.0 mi NNW 5.8 mph - N/A   Clear
9:53 PM 66.0 °F 57.0 °F 73% 29.98 in 10.0 mi NNW 5.8 mph - N/A   Clear
10:53 PM 63.0 °F 57.9 °F 84% 29.99 in 10.0 mi NNW 4.6 mph - N/A   Clear
11:53 PM 60.1 °F 57.0 °F 90% 29.99 in 10.0 mi NNW 3.5 mph - N/A   Clear